Regional Weather Roundup
Issued by NWS New Orleans/Baton Rouge, LA

Home | Current Version | Previous Version | Graphics & Text | Print | Product List | Glossary On
Versions: 1 2 3 4 5 6 7 8 9 10 11 12 13 14 15 16 17 18 19 20 21 22 23 24 25 26 27 28 29 30 31 32 33 34 35 36 37 38 39 40 41 42 43 44 45 46 47 48 49 50
089
ASUS44 KLIX 221110
RWRLIX
NEW ORLEANS REGIONAL WEATHER ROUNDUP
NATIONAL WEATHER SERVICE NEW ORLEANS LA
500 AM CST SAT NOV 22 2014

NOTE: "FAIR" INDICATES FEW OR NO CLOUDS BELOW 12,000 FEET WITH NO
      SIGNIFICANT WEATHER AND/OR OBSTRUCTIONS TO VISIBILITY.
      SKY/WX - SKY CONDITION AND SIGNIFICANT WEATHER.
      TMP - AIR TEMPERATURE.     DP    - DEWPOINT TEMPERATURE.
      RH  - RELATIVE HUMIDITY.   PRES  - PRESSURE.
      HI  - HEAT INDEX.          WCI   - WIND CHILL INDEX.

*  THESE STATIONS ARE NOT NWS OR FAA STATIONS AND ARE NOT UNDER
   NWS QUALITY CONTROL.

LAZ038-040-048-061>063-065>067-069-221200-
SOUTHEAST LOUISIANA

CITY           SKY/WX    TMP DP  RH WIND       PRES   REMARKS
N.O. AUDUBON   NOT AVBL
N.O. INTL ARPT PTCLDY    55  51  86 E5        30.21F
N.O. LAKEFRONT CLEAR     56  51  84 E10       30.22S
N.O. DOWNTOWN*   N/A     57  48  72 NE7       30.21S
SLIDELL        CLEAR     52  46  80 E5        30.22F
BATON ROUGE    MOCLDY    53  48  83 E8        30.21F
BOOTHVILLE     CLEAR     60  57  89 NE3       30.20S
BELLE CHASSE   PTCLDY    55  51  86 NE7       30.21R
BOGALUSA*        N/A     44  41  90 CALM      30.25F
NEW ROADS*       N/A     54  49  85 E5        30.20F
GONZALES*        N/A     52  52 100 NE3       30.20F
HAMMOND*       CLEAR     52  46  82 E5        30.23F
HOUMA*         PTCLDY    54  52  94 NE6       30.18F
PORT FOURCHON* MOSUNNY   61  57  88 NE8       30.20F

$$

MSZ070-080>082-221200-
SOUTHERN MISSISSIPPI

CITY           SKY/WX    TMP DP  RH WIND       PRES   REMARKS
MCCOMB         MOCLDY    52  44  74 E7        30.23F
GULFPORT       CLEAR     52  45  77 NE8       30.24S
BILOXI         CLEAR     54  46  73 E12       30.24S
PASCAGOULA     CLEAR     48  43  82 NE6       30.27R

$$

COASTAL OBSERVATIONS
LAKE AND NEARSHORE STATIONS

STATION/POSITION TIME  TEMP    WIND        PRES    WAVE
                       AIR SEA DIR/SP/G            HT/PER
                 (UTC) (F)     (DEG/KT/KT) (MB)    (FT/S)
PASCAGOULA       1100   54      50/ 12/ 14 1023.9
WAVELAND YACHT   1100   53      60/ 10/ 12 1022.8
GRAND ISLE       1100   62 61   70/  7/  9 1022.4
SOUTHWEST PASS   1100   69 72              1021.7
NEW CANAL        1100   55 53   80/  7/  9 1023.2
SHELL BEACH      1100   56 51   50/ 10/ 12 1022.7

OFFSHORE STATIONS

STATION/POSITION TIME  TEMP    WIND        PRES    WAVE
                       AIR SEA DIR/SP/G            HT/PER
                 (UTC) (F)     (DEG/KT/KT) (MB)    (FT/S)
64 S DAUPHIN ISL 1011   70 72   90/ 19/ 23 1023.3    6/ 8

$$




USA.gov is the U.S. government's official web portal to all federal, state and local government web resources and services.